Weather History for Lucknow, India

Change the Weather History Date:

Wednesday, December 18, 2013

  Actual Average Record
Temperature  
Mean Temperature 58 °F -  
Max Temperature 75 °F 66 °F 78 °F (2008)
Min Temperature 41 °F 49 °F 41 °F (2013)
Degree Days  
Heating Degree Days 7    
Growing Degree Days 8 (Base 50)    
Moisture  
Dew Point 53 °F    
Average Humidity 81    
Maximum Humidity 100    
Minimum Humidity 44    
Precipitation  
Precipitation 0.00 in - - ()
Sea Level Pressure  
Sea Level Pressure 29.90 in    
Wind  
Wind Speed 1 mph ()    
Max Wind Speed 2 mph    
Max Gust Speed -    
Visibility 0.6 miles    
Events Fog    
Averages and records for this station are not official NWS values.
T = Trace of Precipitation, MM = Missing Value Source: Averaged Metar Reports

Daily Weather History Graph

Daily Weather History Graph

Search for Another Location

Airport:

Trip Planner

Search our weather history database for the weather conditions in past years. The results will help you decide how hot, cold, wet, or windy it might be!

Date:

Astronomy

Dec. 18, 2013 Rise Set
Actual Time 6:49 AM IST 5:16 PM IST
Civil Twilight 6:23 AM IST 5:42 PM IST
Nautical Twilight 5:54 AM IST 6:11 PM IST
Astronomical Twilight 5:26 AM IST 6:39 PM IST
Moon 6:17 PM IST (12/18) 7:14 AM IST (12/18)
Length of Visible Light 11h 18m
Length of Day
10h 27m
Full, 99% of the Moon is Illuminated
Dec 18
Full
Dec 25
Last Quarter
Jan 1
New
Jan 8
First Quarter
Jan 16
Full

Hourly Weather History & Observations

Time (IST) Temp. Dew Point Humidity Pressure Visibility Wind Dir Wind Speed Gust Speed Precip Events Conditions
12:00 AM 51.8 °F 50.0 °F 94% 29.92 in 0.1 mi Calm Calm - N/A Fog Fog
1:00 AM 50.0 °F 48.2 °F 94% 29.92 in 0.1 mi Calm Calm - N/A Fog Fog
2:30 AM 49 °F 47 °F 92% 29.94 in 0 mi Calm Calm - - Fog Heavy Fog
3:00 AM 48.2 °F 48.2 °F 100% 29.89 in 0.0 mi Calm Calm - N/A Fog Fog
4:00 AM 46.4 °F 44.6 °F 93% 29.89 in 0.0 mi Calm Calm - N/A Fog Fog
5:00 AM 46.4 °F 44.6 °F 93% 29.89 in 0.0 mi Calm Calm - N/A Fog Fog
5:30 AM 46 °F 44 °F 90% 29.94 in 0 mi Calm Calm - - Fog Heavy Fog
5:30 AM 46.4 °F 44.6 °F 93% 29.89 in 0.0 mi Calm Calm - N/A Fog Fog
6:00 AM 46.4 °F 44.6 °F 93% 29.92 in - Calm Calm - N/A Fog Fog
6:30 AM 46.4 °F 46.4 °F 100% 29.92 in - Calm Calm - N/A Fog Fog
7:00 AM 46.4 °F 46.4 °F 100% 29.95 in - Calm Calm - N/A Fog Fog
7:30 AM 46.4 °F 46.4 °F 100% 29.95 in - Calm Calm - N/A Fog Fog
8:30 AM 50 °F 47 °F 85% 30.00 in 0 mi Calm Calm - - Fog Light Fog
8:30 AM 50.0 °F 46.4 °F 87% 29.98 in 0.0 mi Calm Calm - N/A Fog Fog
11:00 AM 66.2 °F 57.2 °F 73% 29.98 in 0.7 mi Calm Calm - N/A   Unknown
11:30 AM 68 °F 58 °F 62% 29.97 in 1 mi 2.3 mph - -   Haze
12:00 PM 68.0 °F 57.2 °F 68% 29.95 in 0.9 mi Variable 2.3 mph - N/A   Haze
12:30 PM 69.8 °F 59.0 °F 68% 29.92 in 0.9 mi Variable 2.3 mph - N/A   Haze
1:00 PM 69.8 °F 59.0 °F 68% 29.92 in 0.9 mi Variable 2.3 mph - N/A   Haze
1:30 PM 73.4 °F 57.2 °F 57% 29.92 in 1.2 mi Variable 2.3 mph - N/A   Haze
2:00 PM 73.4 °F 57.2 °F 57% 29.89 in 1.2 mi Variable 2.3 mph - N/A   Haze
2:30 PM 73 °F 56 °F 44% 29.88 in 1 mi 2.3 mph - -   Haze
2:30 PM 73.4 °F 55.4 °F 53% 29.86 in 1.6 mi Variable 2.3 mph - N/A   Haze
3:30 PM 73.4 °F 59.0 °F 61% 29.86 in 1.6 mi Variable 2.3 mph - N/A   Haze
4:00 PM 73.4 °F 59.0 °F 61% 29.83 in 1.6 mi Variable 2.3 mph - N/A   Haze
4:30 PM 71.6 °F 60.8 °F 69% 29.83 in 1.6 mi Variable 2.3 mph - N/A   Haze
5:00 PM 69.8 °F 60.8 °F 73% 29.83 in 1.2 mi Variable 2.3 mph - N/A   Haze
5:30 PM 65 °F 58 °F 71% 29.86 in 1 mi 2.3 mph - -   Mist
6:00 PM 62.6 °F 57.2 °F 82% 29.86 in 0.9 mi Variable 1.2 mph - N/A   Mist
6:30 PM 62.6 °F 57.2 °F 82% 29.86 in 0.9 mi Variable 1.2 mph - N/A   Mist
7:00 PM 60.8 °F 55.4 °F 82% 29.86 in 0.8 mi Variable 1.2 mph - N/A   Mist
8:00 PM 59.0 °F 55.4 °F 88% 29.86 in 0.5 mi Calm Calm - N/A Fog Shallow Fog
8:30 PM 58 °F 56 °F 90% 29.91 in 0 mi Calm Calm - - Fog Patches of Fog
8:30 PM 57.2 °F 55.4 °F 94% 29.89 in 0.4 mi Calm Calm - N/A Fog Shallow Fog
10:00 PM 57.2 °F 55.4 °F 94% 29.89 in 0.4 mi Variable 2.3 mph - N/A Fog Fog
11:00 PM 57.2 °F 55.4 °F 94% 29.89 in 0.4 mi Variable 2.3 mph - N/A Fog Fog
11:30 PM 57 °F 56 °F 93% 29.92 in 0 mi Calm Calm - - Fog Partial Fog